• Em Portugal
  • Lista de países
  • Para 7 dias
  • Temperatura da água
  • Mapas de satélite
  • Mapa do tempo
  • Widgets de tempo
  • user-avatar
    Iniciar Sessão

    Previsão horária em Curitiba

    Hoje, 18 Agosto, Sábado

    Tempo Temperatura Precipitação Vento Pressão Humidade
    00:00 +11°C° 0 mm 1 m/s 687 mmHg 97%
    01:00 +11°C° 0 mm 1 m/s 687 mmHg 96%
    02:00 +11°C° 0 mm 1 m/s 687 mmHg 96%
    03:00 +10°C° 0 mm 0 m/s 687 mmHg 95%
    04:00 +10°C° 0 mm 0 m/s 686 mmHg 95%
    05:00 +10°C° 0 mm 0 m/s 686 mmHg 95%
    06:00 +10°C° 0 mm 0 m/s 686 mmHg 96%
    07:00 +12°C° 0 mm 1 m/s 687 mmHg 93%
    08:00 +12°C° 0 mm 1 m/s 687 mmHg 91%
    09:00 +13°C° 0 mm 2 m/s 687 mmHg 90%
    10:00 +14°C° 0 mm 2 m/s 687 mmHg 87%
    11:00 +15°C° 0 mm 1 m/s 687 mmHg 85%
    12:00 +15°C° 0 mm 1 m/s 687 mmHg 82%
    13:00 +16°C° 0 mm 1 m/s 687 mmHg 80%
    14:00 +18°C° 0 mm 1 m/s 686 mmHg 78%
    15:00 +18°C° 0 mm 1 m/s 686 mmHg 76%
    16:00 +16°C° 0 mm 1 m/s 686 mmHg 81%
    17:00 +15°C° 0 mm 1 m/s 685 mmHg 86%
    18:00 +15°C° 0 mm 1 m/s 685 mmHg 90%
    19:00 +14°C° 0 mm 1 m/s 685 mmHg 93%
    20:00 +13°C° 0 mm 1 m/s 686 mmHg 95%
    21:00 +13°C° 0 mm 1 m/s 686 mmHg 98%
    22:00 +13°C° 0 mm 1 m/s 686 mmHg 97%
    23:00 +13°C° 0 mm 1 m/s 686 mmHg 96%

    Amanhã, 19 Agosto, Domingo

    Tempo Temperatura Precipitação Vento Pressão Humidade
    00:00 +13°C° 0 mm 1 m/s 686 mmHg 96%
    01:00 +13°C° 0 mm 1 m/s 686 mmHg 96%
    02:00 +13°C° 0 mm 1 m/s 686 mmHg 96%
    03:00 +11°C° 0 mm 0 m/s 685 mmHg 96%
    04:00 +11°C° 0 mm 0 m/s 685 mmHg 97%
    05:00 +11°C° 0 mm 0 m/s 685 mmHg 97%
    06:00 +10°C° 0 mm 0 m/s 685 mmHg 98%
    07:00 +12°C° 0 mm 0 m/s 686 mmHg 92%
    08:00 +13°C° 0 mm 0 m/s 686 mmHg 85%
    09:00 +15°C° 0 mm 0 m/s 687 mmHg 79%
    10:00 +19°C° 0 mm 1 m/s 687 mmHg 69%
    11:00 +22°C° 0 mm 1 m/s 687 mmHg 58%
    12:00 +24°C° 0 mm 1 m/s 687 mmHg 48%
    13:00 +24°C° 0 mm 1 m/s 687 mmHg 46%
    14:00 +25°C° 0 mm 1 m/s 686 mmHg 44%
    15:00 +25°C° 0 mm 1 m/s 686 mmHg 42%
    16:00 +23°C° 0 mm 1 m/s 685 mmHg 51%
    17:00 +21°C° 0 mm 1 m/s 685 mmHg 60%
    18:00 +17°C° 0 mm 0 m/s 684 mmHg 70%
    19:00 +16°C° 0 mm 0 m/s 685 mmHg 75%
    20:00 +15°C° 0 mm 0 m/s 685 mmHg 80%
    21:00 +14°C° 0 mm 0 m/s 685 mmHg 85%
    22:00 +13°C° 0 mm 0 m/s 685 mmHg 87%
    23:00 +13°C° 0 mm 0 m/s 686 mmHg 89%

    Depois de amanhã, 20 Agosto, Segunda-feira

    Tempo Temperatura Precipitação Vento Pressão Humidade
    00:00 +13°C° 0 mm 0 m/s 686 mmHg 90%
    01:00 +13°C° 0 mm 0 m/s 685 mmHg 91%
    02:00 +12°C° 0 mm 0 m/s 685 mmHg 92%
    03:00 +12°C° 0 mm 0 m/s 685 mmHg 93%
    04:00 +12°C° 0 mm 0 m/s 685 mmHg 93%
    05:00 +12°C° 0 mm 0 m/s 685 mmHg 93%
    06:00 +12°C° 0 mm 0 m/s 685 mmHg 92%
    07:00 +14°C° 0 mm 0 m/s 685 mmHg 83%
    08:00 +16°C° 0 mm 0 m/s 686 mmHg 74%
    09:00 +18°C° 0 mm 0 m/s 687 mmHg 64%
    10:00 +22°C° 0 mm 1 m/s 687 mmHg 56%
    11:00 +23°C° 0 mm 1 m/s 687 mmHg 49%
    12:00 +25°C° 0 mm 1 m/s 687 mmHg 41%
    13:00 +25°C° 0 mm 1 m/s 687 mmHg 41%
    14:00 +26°C° 0 mm 1 m/s 686 mmHg 41%
    15:00 +26°C° 0 mm 1 m/s 686 mmHg 40%
    16:00 +24°C° 0 mm 1 m/s 685 mmHg 50%
    17:00 +22°C° 0 mm 1 m/s 685 mmHg 60%
    18:00 +20°C° 0 mm 1 m/s 685 mmHg 70%
    19:00 +19°C° 0 mm 1 m/s 685 mmHg 76%
    20:00 +18°C° 0 mm 1 m/s 685 mmHg 81%
    21:00 +16°C° 0 mm 1 m/s 686 mmHg 87%
    22:00 +16°C° 0 mm 1 m/s 686 mmHg 89%
    23:00 +15°C° 0 mm 1 m/s 686 mmHg 91%

    21 Agosto, Terça-feira

    Tempo Temperatura Precipitação Vento Pressão Humidade
    00:00 +15°C° 0 mm 1 m/s 686 mmHg 93%
    01:00 +15°C° 0 mm 1 m/s 686 mmHg 95%
    02:00 +14°C° 0 mm 1 m/s 685 mmHg 96%
    03:00 +14°C° 0 mm 1 m/s 685 mmHg 97%
    04:00 +14°C° 0 mm 1 m/s 685 mmHg 97%
    05:00 +14°C° 0 mm 1 m/s 685 mmHg 97%
    06:00 +13°C° 0 mm 1 m/s 685 mmHg 97%
    07:00 +15°C° 0 mm 1 m/s 685 mmHg 91%
    08:00 +16°C° 0 mm 1 m/s 686 mmHg 85%
    09:00 +18°C° 0 mm 1 m/s 686 mmHg 79%
    10:00 +20°C° 0 mm 1 m/s 687 mmHg 71%
    11:00 +22°C° 0 mm 1 m/s 687 mmHg 63%
    12:00 +24°C° 0 mm 2 m/s 687 mmHg 56%
    13:00 +23°C° 0,1 mm 2 m/s 686 mmHg 58%
    14:00 +23°C° 0,1 mm 2 m/s 686 mmHg 60%
    15:00 +23°C° 0,1 mm 2 m/s 685 mmHg 62%
    16:00 +20°C° 0,2 mm 2 m/s 685 mmHg 70%
    17:00 +18°C° 0,2 mm 2 m/s 685 mmHg 78%
    18:00 +17°C° 0,2 mm 2 m/s 685 mmHg 87%
    19:00 +16°C° 0,1 mm 2 m/s 685 mmHg 89%
    20:00 +15°C° 0,1 mm 2 m/s 686 mmHg 91%
    21:00 +15°C° 0,1 mm 1 m/s 686 mmHg 94%
    22:00 +15°C° 0,2 mm 1 m/s 686 mmHg 94%
    23:00 +14°C° 0,2 mm 1 m/s 686 mmHg 95%

    22 Agosto, Quarta-feira

    Tempo Temperatura Precipitação Vento Pressão Humidade
    00:00 +14°C° 0,2 mm 1 m/s 686 mmHg 95%
    01:00 +14°C° 0,1 mm 1 m/s 686 mmHg 95%
    02:00 +14°C° 0,1 mm 1 m/s 686 mmHg 95%
    03:00 +14°C° 0,1 mm 1 m/s 686 mmHg 94%
    04:00 +14°C° 0,1 mm 1 m/s 686 mmHg 94%
    05:00 +14°C° 0,1 mm 1 m/s 686 mmHg 95%
    06:00 +14°C° 0,1 mm 1 m/s 686 mmHg 95%
    07:00 +14°C° 0,1 mm 1 m/s 686 mmHg 93%
    08:00 +14°C° 0,1 mm 1 m/s 687 mmHg 92%
    09:00 +15°C° 0,1 mm 1 m/s 687 mmHg 90%
    10:00 +16°C° 0 mm 1 m/s 687 mmHg 86%
    11:00 +17°C° 0 mm 2 m/s 687 mmHg 82%
    12:00 +18°C° 0 mm 2 m/s 687 mmHg 78%
    13:00 +18°C° 0,1 mm 2 m/s 686 mmHg 77%
    14:00 +18°C° 0,1 mm 2 m/s 686 mmHg 76%
    15:00 +19°C° 0,1 mm 2 m/s 685 mmHg 76%
    16:00 +19°C° 0,1 mm 1 m/s 685 mmHg 80%
    17:00 +18°C° 0,1 mm 1 m/s 685 mmHg 85%
    18:00 +16°C° 0,1 mm 1 m/s 685 mmHg 90%
    19:00 +15°C° 0,8 mm 1 m/s 685 mmHg 92%
    20:00 +15°C° 0,8 mm 1 m/s 685 mmHg 94%
    21:00 +14°C° 0,8 mm 1 m/s 685 mmHg 96%
    22:00 +14°C° 1 mm 1 m/s 685 mmHg 97%
    23:00 +14°C° 1 mm 1 m/s 685 mmHg 97%

    23 Agosto, Quinta-feira

    Tempo Temperatura Precipitação Vento Pressão Humidade
    00:00 +14°C° 1 mm 1 m/s 684 mmHg 98%
    01:00 +14°C° 0,3 mm 1 m/s 684 mmHg 98%
    02:00 +14°C° 0,3 mm 1 m/s 684 mmHg 98%
    03:00 +13°C° 0,3 mm 1 m/s 683 mmHg 98%
    04:00 +13°C° 0,3 mm 1 m/s 683 mmHg 98%
    05:00 +13°C° 0,3 mm 1 m/s 683 mmHg 98%
    06:00 +13°C° 0,3 mm 1 m/s 683 mmHg 98%
    07:00 +14°C° 0,5 mm 1 m/s 684 mmHg 95%
    08:00 +15°C° 0,5 mm 1 m/s 684 mmHg 92%
    09:00 +18°C° 0,5 mm 1 m/s 685 mmHg 89%
    10:00 +19°C° 0,1 mm 1 m/s 685 mmHg 81%
    11:00 +21°C° 0,1 mm 1 m/s 685 mmHg 72%
    12:00 +23°C° 0,1 mm 1 m/s 685 mmHg 63%
    13:00 +24°C° 0 mm 1 m/s 685 mmHg 60%
    14:00 +25°C° 0 mm 2 m/s 684 mmHg 57%
    15:00 +26°C° 0 mm 2 m/s 684 mmHg 53%
    16:00 +24°C° 0,1 mm 1 m/s 684 mmHg 62%
    17:00 +22°C° 0,1 mm 1 m/s 683 mmHg 71%
    18:00 +20°C° 0,1 mm 1 m/s 683 mmHg 80%
    19:00 +19°C° 0,9 mm 1 m/s 684 mmHg 84%
    20:00 +19°C° 0,9 mm 1 m/s 684 mmHg 88%
    21:00 +18°C° 0,9 mm 1 m/s 684 mmHg 92%
    22:00 +16°C° 0,4 mm 1 m/s 684 mmHg 93%
    23:00 +16°C° 0,4 mm 1 m/s 684 mmHg 95%
    Mostrar mais